SCP
0 0 0 -0 0 0 0 0 0 0 0 0 0 0 0 0 0 0 0 0 0 0 0 0 0 0 0 0 0 0 0 0
0 0 0 0 0 0 0 0 0 0 0 0 0 0 0 0 0 0 0 0 0 0 0 0 0 0 0 0 0 0 0 0
0 0 0 0 0 0 0 0 0 0 0 0 0 0 0 0 0 0 0 0 0 0 0 0 0 0 0 0 0 0 0 0
0 0 0 0 0 0 0 0 0 0 0 0 0 0 0 0 0 0 0 0 0 0 0 0 0 0 0 0 0 0 0 0
0 0 0 0 0 0 0 0 0 0 0 0 0 0 0 0 0 0 0 0 0 0 0 0 0 0 0 0 0 0 0 0
0 0 0 0 0 0 0 0 0 0 0 0 0 0 0 0 0 0 0 0 0 0 0 0 0 0 0 0 0 0 0 0
0 0 0 0 0 0 0 0 0 0 -0 -0 0 0 0 0 0 -0 0 0 0 -0 -0 0 0 0 0 0 0 0 0 0
0 0 0 0 0 0 0 0 -0 0 -0 0 0 0 -0 -0 0 0 0 -0 0 0 0 0 0 0 0 0 0 0 0 0
0 0 0 0 0 0 0 0 0 0 0 0 0 0 0 0 0 0 -0 -0 0 0 0 0 0 -0 -0 -0 -0 0 0 0
0 0 -0 -0 -0 -0 -0 -0 -0 0 0 0 0 0 0 0 0 0 0 -0 -0 -0 -0 -0 -0 -0 -0 0 0 0 0 0
-0 -0 -0 -0 -0 -0 -0 -0 -0 0 0 0 0 0 0 -0 -0 -0 -0 -0 -0 -0 -0 -0 -0 0 0 0 0 0 0 0
-0 -0 -0 -0 -0 -0 -0 -0 0 0 0 0 -0 -0 -0 -0 -0 -0 -0 -0 -0 -0 0 0 0 0 0 0 0 0 0 0
-0 -0 -0 -0 -0 -0 -0 -0 -0 -0 -0 -0 -0 -0 -0 0 0 0 -0 0 0 0 0 0 0 0 0 0 0 0 0 0
-0 -0 -0 -0 -0 -0 -0 -0 -0 -0 -0 -0 -0 0 0 -0 -0 0 0 0 0 0 0 0 0 0 -0 -0 -0 -0 -0 0
-0 -0 -0 -0 -0 -0 0 0 0 0 0 0 0 0 0 0 0 0 0 0 0 0 0 0 0 0 0 0 0 0 0 0
0 -0 -0 0 0 0 0 0 0 0 0 -0 -0 -0 0 0 0 0 0 0 0 0 0 0 0 0 0 0 0 0 0 0
0 0 0 0 0 0 0 0 0 -0 -0 0 0 0 0 0 0 0 0 0 0 0 0 0 0 0 0 0 0 0 0 0
0 0 0 0 0 0 0 0 0 0 0 0 0 0 0 0 0 0 0 0 0 0 0 0 0 0 0 0 0 0 0 0
0 0 0 0 0 0 0 0 0 0 0 0 0 0 0 0 0 0 0 0 0 0 0 0 0 0 0 0 0 0 0 0
0 0 0 0 0 0 0 0 0 0 0 0 0 0 0 0 0 0 0 0 0 0 0 0 0 0 0 0 0 0 0 0
Wind_Speed_500mb
26 27 26 23 21 21 22 18 12 4 6 11 12 15 17 16 19 18 19 19 23 28 34 40 44 45 50 57 44 48 46 38
26 26 24 20 18 19 17 15 12 9 10 14 17 18 21 25 26 24 24 26 28 28 35 37 43 43 59 71 63 58 60 56
24 25 23 21 21 24 22 19 17 15 15 20 25 26 29 34 36 35 35 39 42 45 45 58 61 56 54 67 63 63 55 48
22 24 24 23 22 22 22 23 20 21 25 31 36 40 45 48 50 56 64 73 79 79 75 71 65 65 58 55 55 54 55 52
19 22 20 20 19 20 22 23 28 35 43 52 59 66 72 76 78 80 78 76 72 74 77 74 67 60 60 60 58 55 54 47
19 19 17 18 18 19 23 29 41 52 63 72 76 79 79 79 79 78 80 79 75 74 74 72 67 61 55 54 54 49 45 44
12 15 19 23 23 27 34 43 53 63 67 67 69 70 73 75 77 73 72 75 75 72 69 66 63 54 49 46 46 42 38 37
17 22 26 31 33 37 42 49 58 66 69 68 66 69 70 70 69 68 66 63 63 62 58 58 55 45 42 39 37 34 32 30
27 31 33 33 37 40 41 46 47 56 59 58 60 62 61 59 58 58 55 53 52 51 50 48 47 39 35 30 27 25 22 20
34 35 36 34 35 39 43 43 44 48 49 50 50 51 51 50 50 48 45 44 43 42 39 36 36 30 25 20 18 18 16 15
29 30 33 33 35 37 37 39 41 43 43 43 43 43 42 42 41 39 36 35 33 32 29 27 26 23 18 15 14 12 11 13
34 34 34 34 35 36 38 37 38 38 38 37 36 33 33 32 33 30 28 27 25 23 23 21 19 15 11 8 10 11 12 12
40 39 39 38 37 35 34 33 33 32 30 29 29 27 27 24 24 23 21 19 17 16 14 13 11 10 8 6 6 7 11 14
45 42 40 37 35 32 30 29 28 27 25 23 21 20 18 17 14 14 13 12 10 8 6 4 3 2 3 6 8 13 17 21
51 47 42 39 35 33 29 28 27 26 24 22 20 18 16 14 12 11 9 8 6 6 4 3 4 7 10 14 16 17 20 25
50 46 42 39 36 34 32 30 27 25 22 20 18 17 18 18 17 16 15 14 12 11 9 9 10 12 13 16 18 20 22 28
51 48 45 42 40 38 36 33 31 28 28 29 29 27 25 24 23 20 18 17 17 17 18 19 21 21 23 22 23 24 30 37
53 48 49 47 45 42 41 39 38 36 36 34 33 32 32 30 29 28 28 27 27 29 31 34 35 33 33 31 30 30 33 40
55 54 52 51 49 46 46 45 43 41 40 41 41 40 38 37 37 39 39 38 38 39 41 41 42 44 44 41 40 39 38 43
59 59 59 59 54 53 52 52 49 49 48 47 46 46 47 49 50 50 50 49 49 49 51 47 49 52 50 46 50 49 50 47
Wind_Direction_500mb
345 350 355 7 18 20 14 13 25 53 168 173 174 181 173 178 203 198 190 180 185 184 187 180 185 184 177 191 185 175 163 165
348 358 8 13 23 28 25 32 49 75 118 140 143 152 160 165 165 164 159 154 149 163 158 159 153 157 147 137 143 142 134 133
353 5 14 24 29 36 36 47 62 86 112 131 129 134 140 141 140 137 142 141 137 135 136 128 123 122 121 113 115 118 115 105
6 16 24 32 39 48 54 60 74 101 114 117 119 124 122 121 122 124 124 123 123 121 121 117 117 114 104 97 100 97 99 108
14 21 29 40 50 60 73 90 101 112 118 118 117 116 115 115 115 114 111 109 107 106 105 105 103 106 108 113 113 114 113 110
23 30 41 55 66 80 97 106 113 117 118 118 119 119 119 117 112 110 108 106 105 107 108 109 109 107 111 108 108 106 106 103
54 57 63 71 80 95 104 114 117 114 113 112 110 109 110 110 110 109 111 114 114 110 109 109 106 105 104 105 102 101 97 95
74 79 84 90 99 107 114 116 116 114 113 114 116 115 114 113 113 113 112 112 109 108 107 101 98 96 92 88 89 90 89 86
101 101 101 102 109 113 118 119 117 116 114 116 118 116 113 112 110 110 110 108 105 105 102 101 98 96 92 88 86 81 78 71
123 123 123 129 131 133 133 130 128 120 118 117 116 114 113 111 110 109 108 104 103 100 98 96 95 92 93 92 87 77 67 58
133 135 134 137 138 138 135 133 129 124 124 122 120 119 118 114 108 105 106 106 105 104 103 103 102 96 85 73 63 53 40 25
151 151 149 149 147 143 140 138 133 131 130 129 125 121 116 118 118 116 114 111 109 103 98 93 87 93 81 57 37 24 12 358
164 161 158 155 152 151 149 147 144 142 140 138 134 134 132 131 128 126 120 114 105 96 86 77 67 55 44 27 8 345 342 341
173 172 169 165 161 161 161 162 159 156 156 155 153 150 144 140 140 136 131 128 126 119 109 109 108 77 17 7 353 349 347 346
183 181 178 175 175 174 180 181 178 177 177 176 174 174 176 178 182 181 181 186 192 198 215 258 305 333 346 342 341 344 338 336
191 188 185 187 188 188 189 193 196 194 197 201 204 207 212 216 220 224 226 230 236 246 258 272 292 300 297 303 313 324 335 334
199 197 196 198 199 202 202 203 206 209 214 218 219 221 225 231 235 239 247 254 259 267 274 280 280 275 276 279 298 317 324 329
209 205 206 208 210 211 213 216 217 217 220 225 230 233 235 240 246 253 258 266 270 271 270 269 272 275 277 283 288 299 310 319
216 215 217 220 220 220 223 226 228 231 234 238 240 242 246 250 253 256 259 262 262 263 266 268 271 271 273 278 285 295 300 311
223 222 222 227 227 227 230 233 234 237 240 245 249 252 253 255 256 258 260 263 265 264 265 269 269 270 274 275 282 291 293 302
Wind_Speed_850mb
26 27 26 23 21 21 22 18 12 4 6 11 12 15 17 16 19 18 19 19 23 28 34 40 44 45 50 57 44 48 46 38
26 26 24 20 18 19 17 15 12 9 10 14 17 18 21 25 26 24 24 26 28 28 35 37 43 43 59 71 63 58 60 56
24 25 23 21 21 24 22 19 17 15 15 20 25 26 29 34 36 35 35 39 42 45 45 58 61 56 54 67 63 63 55 48
22 24 24 23 22 22 22 23 20 21 25 31 36 40 45 48 50 56 64 73 79 79 75 71 65 65 58 55 55 54 55 52
19 22 20 20 19 20 22 23 28 35 43 52 59 66 72 76 78 80 78 76 72 74 77 74 67 60 60 60 58 55 54 47
19 19 17 18 18 19 23 29 41 52 63 72 76 79 79 79 79 78 80 79 75 74 74 72 67 61 55 54 54 49 45 44
12 15 19 23 23 27 34 43 53 63 67 67 69 70 73 75 77 73 72 75 75 72 69 66 63 54 49 46 46 42 38 37
17 22 26 31 33 37 42 49 58 66 69 68 66 69 70 70 69 68 66 63 63 62 58 58 55 45 42 39 37 34 32 30
27 31 33 33 37 40 41 46 47 56 59 58 60 62 61 59 58 58 55 53 52 51 50 48 47 39 35 30 27 25 22 20
34 35 36 34 35 39 43 43 44 48 49 50 50 51 51 50 50 48 45 44 43 42 39 36 36 30 25 20 18 18 16 15
29 30 33 33 35 37 37 39 41 43 43 43 43 43 42 42 41 39 36 35 33 32 29 27 26 23 18 15 14 12 11 13
34 34 34 34 35 36 38 37 38 38 38 37 36 33 33 32 33 30 28 27 25 23 23 21 19 15 11 8 10 11 12 12
40 39 39 38 37 35 34 33 33 32 30 29 29 27 27 24 24 23 21 19 17 16 14 13 11 10 8 6 6 7 11 14
45 42 40 37 35 32 30 29 28 27 25 23 21 20 18 17 14 14 13 12 10 8 6 4 3 2 3 6 8 13 17 21
51 47 42 39 35 33 29 28 27 26 24 22 20 18 16 14 12 11 9 8 6 6 4 3 4 7 10 14 16 17 20 25
50 46 42 39 36 34 32 30 27 25 22 20 18 17 18 18 17 16 15 14 12 11 9 9 10 12 13 16 18 20 22 28
51 48 45 42 40 38 36 33 31 28 28 29 29 27 25 24 23 20 18 17 17 17 18 19 21 21 23 22 23 24 30 37
53 48 49 47 45 42 41 39 38 36 36 34 33 32 32 30 29 28 28 27 27 29 31 34 35 33 33 31 30 30 33 40
55 54 52 51 49 46 46 45 43 41 40 41 41 40 38 37 37 39 39 38 38 39 41 41 42 44 44 41 40 39 38 43
59 59 59 59 54 53 52 52 49 49 48 47 46 46 47 49 50 50 50 49 49 49 51 47 49 52 50 46 50 49 50 47
Wind_Direction_850mb
345 350 355 7 18 20 14 13 25 53 168 173 174 181 173 178 203 198 190 180 185 184 187 180 185 184 177 191 185 175 163 165
348 358 8 13 23 28 25 32 49 75 118 140 143 152 160 165 165 164 159 154 149 163 158 159 153 157 147 137 143 142 134 133
353 5 14 24 29 36 36 47 62 86 112 131 129 134 140 141 140 137 142 141 137 135 136 128 123 122 121 113 115 118 115 105
6 16 24 32 39 48 54 60 74 101 114 117 119 124 122 121 122 124 124 123 123 121 121 117 117 114 104 97 100 97 99 108
14 21 29 40 50 60 73 90 101 112 118 118 117 116 115 115 115 114 111 109 107 106 105 105 103 106 108 113 113 114 113 110
23 30 41 55 66 80 97 106 113 117 118 118 119 119 119 117 112 110 108 106 105 107 108 109 109 107 111 108 108 106 106 103
54 57 63 71 80 95 104 114 117 114 113 112 110 109 110 110 110 109 111 114 114 110 109 109 106 105 104 105 102 101 97 95
74 79 84 90 99 107 114 116 116 114 113 114 116 115 114 113 113 113 112 112 109 108 107 101 98 96 92 88 89 90 89 86
101 101 101 102 109 113 118 119 117 116 114 116 118 116 113 112 110 110 110 108 105 105 102 101 98 96 92 88 86 81 78 71
123 123 123 129 131 133 133 130 128 120 118 117 116 114 113 111 110 109 108 104 103 100 98 96 95 92 93 92 87 77 67 58
133 135 134 137 138 138 135 133 129 124 124 122 120 119 118 114 108 105 106 106 105 104 103 103 102 96 85 73 63 53 40 25
151 151 149 149 147 143 140 138 133 131 130 129 125 121 116 118 118 116 114 111 109 103 98 93 87 93 81 57 37 24 12 358
164 161 158 155 152 151 149 147 144 142 140 138 134 134 132 131 128 126 120 114 105 96 86 77 67 55 44 27 8 345 342 341
173 172 169 165 161 161 161 162 159 156 156 155 153 150 144 140 140 136 131 128 126 119 109 109 108 77 17 7 353 349 347 346
183 181 178 175 175 174 180 181 178 177 177 176 174 174 176 178 182 181 181 186 192 198 215 258 305 333 346 342 341 344 338 336
191 188 185 187 188 188 189 193 196 194 197 201 204 207 212 216 220 224 226 230 236 246 258 272 292 300 297 303 313 324 335 334
199 197 196 198 199 202 202 203 206 209 214 218 219 221 225 231 235 239 247 254 259 267 274 280 280 275 276 279 298 317 324 329
209 205 206 208 210 211 213 216 217 217 220 225 230 233 235 240 246 253 258 266 270 271 270 269 272 275 277 283 288 299 310 319
216 215 217 220 220 220 223 226 228 231 234 238 240 242 246 250 253 256 259 262 262 263 266 268 271 271 273 278 285 295 300 311
223 222 222 227 227 227 230 233 234 237 240 245 249 252 253 255 256 258 260 263 265 264 265 269 269 270 274 275 282 291 293 302